Location: Arborea
(39.7744°N, 8.5819°E)
Time: 11:18:07
(UTC+00:00)

OAO 3 Rocket - Pass Details

Date: 29 May 2022
Orbit: 628 x 681 km, 35.0° (Epoch: 02 July)

Event Time Altitude Azimuth Distance (km) Brightness Sun altitude
Rises 19:42:05 0° 269° (W) 2,992 7.4 -9.8°
Reaches altitude 10° 19:44:40 10° 259° (W) 2,087 6.4 -10.2°
Maximum altitude 19:48:56 31° 198° (SSW) 1,183 4.3 -10.8°
Enters shadow 19:52:16 15° 144° (SE) 1,793 4.8 -11.3°
